Location: Armstrong Village
(14.3346°N, 120.9854°E)
Time: 12:40:31
(UTC+00:00)

Cosmos 1821 Rocket - Pass Details

Date: 18 April 2026
Orbit: 945 x 1003 km, 82.9° (Epoch: 12 May)

Event Time Altitude Azimuth Distance (km) Brightness Sun altitude
Exits shadow 12:38:14 28° 227° (SW) 1,720 5.4 -35.0°
Maximum altitude 12:40:49 41° 276° (W) 1,367 5.0 -35.6°
Drops below altitude 10° 12:46:39 10° 345° (NNW) 2,727 6.7 -36.8°
Sets 12:49:21 0° 352° (N) 3,684 7.4 -37.4°
